Le nostre stazioni meteo in Italia

Pubblicità
Il mio iltempo24.it
Grazzanise, Italia (16253): Temperatura & dewpoint: 09.10.2019 12:00:00 - 15.10.2019 12:00:00 (CEST)Grazzanise, Italia (16253): velocità del vento: 09.10.2019 12:00:00 - 15.10.2019 12:00:00 (CEST)Grazzanise, Italia (16253): direzione del vento: 09.10.2019 12:00:00 - 15.10.2019 12:00:00 (CEST)Grazzanise, Italia (16253): reduced air pressure: 09.10.2019 12:00:00 - 15.10.2019 12:00:00 (CEST)Grazzanise, Italia (16253): visibility: 09.10.2019 12:00:00 - 15.10.2019 12:00:00 (CEST)Grazzanise, Italia (16253): ore di luce: 09.10.2019 12:00:00 - 15.10.2019 12:00:00 (CEST)
Data & Tempo tt [°C] td [°C] ff [km/h] ff [kn] dd ppp [hPa] vv [km] sd [min]
15.10.2019 12:00:00 27,0 20,0 5 3 ENE - 10 -
15.10.2019 11:00:00 22,6 18,0 8 4 NE 1019,5 10 -
15.10.2019 10:00:00 21,0 18,0 8 4 NE - 10 -
15.10.2019 09:00:00 18,0 16,0 5 3 NNE - 10 -
15.10.2019 08:00:00 15,8 14,2 8 4 NE 1019,4 10 -
15.10.2019 07:00:00 15,0 14,0 8 4 NNE - 10 -
15.10.2019 06:00:00 15,0 14,0 4 2 NNE - 10 -
15.10.2019 05:00:00 15,4 13,8 5 3 NE 1019,9 11 -
15.10.2019 04:00:00 16,0 15,0 4 2 NNE - 10 -
15.10.2019 03:00:00 16,0 15,0 5 3 NNE - 10 -
15.10.2019 02:00:00 16,2 15,9 8 4 N 1020,3 11 -
15.10.2019 01:00:00 16,0 16,0 4 2 N - 8 -
15.10.2019 00:00:00 16,0 16,0 5 3 NNE - 7 -
14.10.2019 23:00:00 16,8 16,8 4 2 NNE 1021,1 6 -
14.10.2019 22:00:00 19,0 19,0 0 0 N - 9 -
14.10.2019 21:00:00 20,0 19,0 4 2 S - 10 -
14.10.2019 20:00:00 22,2 20,5 4 2 O 1020,6 15 -
14.10.2019 19:00:00 24,0 22,0 5 3 OSO - 10 -
14.10.2019 18:00:00 24,0 21,0 11 6 OSO - 10 -
14.10.2019 17:00:00 25,4 19,5 13 7 OSO 1021,2 15 60
14.10.2019 16:00:00 26,0 18,0 9 5 OSO - 10 -
14.10.2019 15:00:00 27,0 16,0 15 8 SSO - 10 -
14.10.2019 14:00:00 27,8 13,7 4 2 NNO 1022,2 15 60
14.10.2019 13:00:00 26,0 15,0 0 0 N - 10 -
14.10.2019 12:00:00 24,0 15,0 4 2 ESE - 10 -
14.10.2019 11:00:00 24,0 16,5 4 2 E 1023,1 15 60
14.10.2019 10:00:00 21,0 17,0 0 0 N - 10 -
14.10.2019 09:00:00 18,0 15,0 9 5 ENE - 10 -
14.10.2019 08:00:00 14,6 13,7 9 5 NNE 1022,1 15 6
14.10.2019 07:00:00 15,0 14,0 5 3 NNE - 10 -
14.10.2019 06:00:00 16,0 15,0 5 3 NE - 10 -
14.10.2019 05:00:00 16,2 14,4 8 4 NE 1022,6 15 -
14.10.2019 04:00:00 26,0 24,0 9 5 ENE - 10 -
14.10.2019 03:00:00 16,0 15,0 5 3 NE - 10 -
14.10.2019 02:00:00 16,6 15,1 8 4 NE 1023,1 15 -
14.10.2019 01:00:00 16,0 15,0 9 5 NNE - 10 -
14.10.2019 00:00:00 16,0 16,0 5 3 N - 10 -
13.10.2019 23:00:00 16,6 16,0 8 4 NNO 1023,1 20 -
13.10.2019 22:00:00 18,0 17,0 2 1 SE - 10 -
13.10.2019 21:00:00 22,0 20,0 4 2 SSE - 10 -
13.10.2019 20:00:00 21,2 18,8 5 3 O 1022,8 20 -
13.10.2019 19:00:00 23,0 19,0 5 3 O - 10 -
13.10.2019 18:00:00 24,0 17,0 8 4 O - 10 -
13.10.2019 17:00:00 25,6 17,3 13 7 O 1022,6 15 60
13.10.2019 16:00:00 26,0 16,0 9 5 OSO - 10 -
13.10.2019 15:00:00 26,0 12,0 4 2 SO - 10 -
13.10.2019 14:00:00 26,0 12,5 4 2 O 1023,8 20 60
13.10.2019 13:00:00 26,0 13,0 4 2 SO - 10 -
13.10.2019 12:00:00 24,0 16,0 0 0 N - 10 -
13.10.2019 11:00:00 22,6 16,9 4 2 N 1025,0 15 60
13.10.2019 10:00:00 18,0 15,0 8 4 NE - 10 -
13.10.2019 09:00:00 16,0 15,0 9 5 NE - 10 -
13.10.2019 08:00:00 15,0 13,4 5 3 NNE 1024,1 15 0
13.10.2019 07:00:00 15,0 14,0 8 4 NNE - 10 -
13.10.2019 06:00:00 15,0 14,0 11 6 NNE - 10 -
13.10.2019 05:00:00 14,0 13,1 8 4 NE 1023,8 10 -
13.10.2019 04:00:00 15,0 14,0 8 4 NE - 10 -
13.10.2019 03:00:00 15,0 14,0 5 3 NE - 10 -
13.10.2019 02:00:00 15,0 14,0 8 4 NNE 1023,9 10 -
13.10.2019 01:00:00 15,0 14,0 8 4 N - 10 -
13.10.2019 00:00:00 16,0 15,0 4 2 N - 10 -
12.10.2019 23:00:00 17,2 16,1 4 2 ENE 1023,7 15 -
12.10.2019 22:00:00 18,0 17,0 4 2 ESE - 10 -
12.10.2019 21:00:00 20,0 18,0 0 0 N - 10 -
12.10.2019 20:00:00 21,4 18,8 0 0 N 1023,2 15 -
12.10.2019 19:00:00 24,0 18,0 8 4 O - 10 -
12.10.2019 18:00:00 25,0 18,0 9 5 O - 10 -
12.10.2019 17:00:00 26,0 16,3 11 6 O 1023,3 25 -
12.10.2019 16:00:00 27,0 16,0 15 8 O - 10 -
12.10.2019 15:00:00 27,0 14,0 13 7 O - 10 -
12.10.2019 14:00:00 26,8 13,2 8 4 OSO 1023,8 15 60
12.10.2019 13:00:00 26,0 17,0 5 3 O - 10 -
12.10.2019 12:00:00 25,0 18,0 4 2 O - 10 -
12.10.2019 11:00:00 24,4 17,2 2 1 NO 1024,4 12 60
12.10.2019 10:00:00 22,0 18,0 5 3 NE - 10 -
12.10.2019 09:00:00 17,0 15,0 9 5 NE - 10 -
12.10.2019 08:00:00 16,4 14,8 5 3 N 1023,3 12 -
12.10.2019 07:00:00 16,0 14,0 4 2 NNE - 10 -
12.10.2019 06:00:00 16,0 14,0 8 4 NE - 10 -
12.10.2019 05:00:00 16,0 14,4 8 4 ENE 1023,2 20 -
12.10.2019 04:00:00 16,0 15,0 5 3 NNE - 10 -
12.10.2019 03:00:00 17,0 16,0 4 2 N - 10 -
12.10.2019 02:00:00 17,0 16,2 4 2 N 1023,2 12 -
12.10.2019 01:00:00 18,0 17,0 4 2 NNE - 10 -
12.10.2019 00:00:00 18,0 17,0 4 2 N - 10 -
11.10.2019 23:00:00 18,8 18,0 4 2 NNE 1022,3 20 -
11.10.2019 22:00:00 20,0 19,0 4 2 SE - 10 -
11.10.2019 21:00:00 20,0 20,0 4 2 S - 10 -
11.10.2019 20:00:00 21,8 20,1 5 3 SSO 1021,2 20 -
11.10.2019 19:00:00 22,0 18,0 5 3 OSO - 10 -
11.10.2019 18:00:00 25,0 18,0 9 5 O - 10 -
11.10.2019 17:00:00 26,0 17,1 15 8 O 1021,2 15 60
11.10.2019 16:00:00 26,0 15,0 18 10 OSO - 10 -
11.10.2019 15:00:00 27,0 16,0 15 8 OSO - 10 -
11.10.2019 14:00:00 27,4 11,8 11 6 SE 1021,6 15 60
11.10.2019 13:00:00 27,0 11,0 9 5 ENE - 10 -
11.10.2019 12:00:00 25,0 14,0 11 6 NE - 10 -
11.10.2019 11:00:00 24,0 17,0 9 5 NE 1022,2 15 60
11.10.2019 10:00:00 23,0 20,0 13 7 ENE - 10 -
11.10.2019 09:00:00 19,0 17,0 8 4 NNE - 10 -
11.10.2019 08:00:00 17,0 15,4 9 5 N 1020,6 15 6
11.10.2019 07:00:00 17,0 16,0 5 3 NNE - 10 -
11.10.2019 06:00:00 16,0 16,0 8 4 NNE - 10 -
11.10.2019 05:00:00 16,2 15,1 8 4 N 1019,1 20 -
11.10.2019 04:00:00 17,0 16,0 4 2 N - 10 -
11.10.2019 03:00:00 18,0 17,0 0 0 N - 10 -
11.10.2019 02:00:00 17,8 17,0 4 2 E 1018,6 20 -
11.10.2019 01:00:00 18,0 17,0 5 3 N - 10 -
11.10.2019 00:00:00 18,0 17,0 4 2 NE - 10 -
10.10.2019 23:00:00 20,4 19,4 5 3 E 1018,0 20 -
10.10.2019 22:00:00 21,0 20,0 8 4 ESE - 10 -
10.10.2019 21:00:00 22,0 20,0 5 3 O - 10 -
10.10.2019 20:00:00 23,0 20,7 9 5 O 1016,8 20 -
10.10.2019 19:00:00 23,0 20,0 9 5 SO - 10 -
10.10.2019 18:00:00 25,0 21,0 15 8 O - 10 -
10.10.2019 17:00:00 26,2 19,8 15 8 O 1016,2 20 60
10.10.2019 16:00:00 26,0 19,0 15 8 O - 10 -
10.10.2019 15:00:00 27,0 18,0 18 10 O - 10 -
10.10.2019 14:00:00 27,0 15,7 18 10 O 1016,2 20 60
10.10.2019 13:00:00 27,0 14,0 11 6 ONO - 10 -
10.10.2019 12:00:00 25,0 14,0 9 5 O - 10 -
10.10.2019 11:00:00 23,6 15,4 4 2 N 1017,6 20 60
10.10.2019 10:00:00 22,0 16,0 4 2 E - 10 -
10.10.2019 09:00:00 18,0 16,0 5 3 NNE - 10 -
10.10.2019 08:00:00 14,4 13,9 8 4 N 1016,8 20 -
10.10.2019 07:00:00 14,0 14,0 0 0 N - 10 -
10.10.2019 06:00:00 15,0 14,0 0 0 N - 10 -
10.10.2019 05:00:00 15,0 14,0 4 2 NE 1016,6 15 -
10.10.2019 04:00:00 15,0 14,0 8 4 N - 10 -
10.10.2019 03:00:00 16,0 15,0 4 2 ENE - 10 -
10.10.2019 02:00:00 16,0 15,2 5 3 NE 1017,3 15 -
10.10.2019 01:00:00 16,0 15,0 4 2 N - 10 -
10.10.2019 00:00:00 17,0 15,0 4 2 NNE - 10 -
09.10.2019 23:00:00 16,8 15,5 4 2 N 1017,1 15 -
09.10.2019 22:00:00 17,0 16,0 0 0 N - 10 -
09.10.2019 21:00:00 19,0 16,0 4 2 ESE - 10 -
09.10.2019 20:00:00 20,4 16,4 0 0 N 1017,1 20 -
09.10.2019 19:00:00 23,0 13,0 5 3 ONO - 10 -
09.10.2019 18:00:00 25,0 11,0 8 4 O - 10 -
09.10.2019 17:00:00 26,4 11,4 9 5 O 1018,1 20 -
09.10.2019 16:00:00 27,0 12,0 11 6 OSO - 10 -
09.10.2019 15:00:00 27,0 11,0 11 6 OSO - 10 -
09.10.2019 14:00:00 26,8 10,5 5 3 ONO 1019,0 20 -
09.10.2019 13:00:00 26,0 12,0 0 0 N - 10 -
09.10.2019 12:00:00 25,0 15,0 4 2 ENE - 10 -

tt = Temperatura
td = dewpoint
ff = velocità del vento
dd = direzione del vento
ppp = reduced air pressure
vv = visibility
sd = ore di luce

Stazioni seguenti

WeatherPro
AMSI
MeteoEarth